Change the Weather History Date:

Thursday, November 7, 2013

  Actual Average Record
Temperature  
Mean Temperature 54 °F -  
Max Temperature 69 °F 62 °F 81 °F (2006)
Min Temperature 39 °F 40 °F 27 °F (2011)
Degree Days  
Heating Degree Days 11    
Growing Degree Days 4 (Base 50)    
Moisture  
Dew Point 18 °F    
Average Humidity 24    
Maximum Humidity 40    
Minimum Humidity 7    
Precipitation  
Precipitation 0.00 in - - ()
Sea Level Pressure  
Sea Level Pressure 30.15 in    
Wind  
Wind Speed 5 mph (ESE)    
Max Wind Speed 16 mph    
Max Gust Speed -    
Visibility 10 miles    
Events      
Averages and records for this station are not official NWS values.
T = Trace of Precipitation, MM = Missing Value Source: NWS Daily Summary

Daily Weather History Graph

Daily Weather History Graph

Search for Another Location

Airport or City:

Trip Planner

Search our weather history database for the weather conditions in past years. The results will help you decide how hot, cold, wet, or windy it might be!

Date:

Astronomy

Nov. 07, 2013 Rise Set
Actual Time 6:13 AM PST 4:41 PM PST
Civil Twilight 5:46 AM PST 5:08 PM PST
Nautical Twilight 5:16 AM PST 5:39 PM PST
Astronomical Twilight 4:45 AM PST 6:09 PM PST
Moon 10:24 AM PST (11/7) 8:58 PM PST (11/7)
Length of Visible Light 11h 21m
Length of Day
10h 27m
Waxing Crescent, 24% of the Moon is Illuminated
Nov 7
Waxing Crescent
Nov 9
First Quarter
Nov 17
Full
Nov 25
Last Quarter
Dec 2
New

Hourly Weather History & Observations

Time (PST) Temp. Windchill Dew Point Humidity Pressure Visibility Wind Dir Wind Speed Gust Speed Precip Events Conditions
12:52 AM 44.1 °F - 18.0 °F 35% 30.25 in 10.0 mi Calm Calm - N/A   Clear
1:52 AM 43.0 °F 40.3 °F 19.0 °F 38% 30.23 in 10.0 mi NNE 4.6 mph - N/A   Clear
2:52 AM 45.0 °F - 19.0 °F 36% 30.23 in 10.0 mi Calm Calm - N/A   Clear
3:52 AM 44.1 °F - 19.0 °F 37% 30.22 in 10.0 mi Calm Calm - N/A   Clear
4:52 AM 44.1 °F - 19.0 °F 37% 30.22 in 10.0 mi Calm Calm - N/A   Clear
6:52 AM 42.1 °F 39.2 °F 19.0 °F 40% 30.26 in 10.0 mi East 4.6 mph - N/A   Clear
7:52 AM 52.0 °F - 19.9 °F 28% 30.25 in 10.0 mi NW 4.6 mph - N/A   Clear
8:52 AM 59.0 °F - 19.0 °F 21% 30.23 in 10.0 mi ESE 16.1 mph - N/A   Clear
9:52 AM 61.0 °F - 19.0 °F 20% 30.22 in 10.0 mi ESE 11.5 mph - N/A   Clear
10:52 AM 63.0 °F - 19.0 °F 18% 30.20 in 10.0 mi SE 11.5 mph - N/A   Clear
11:52 AM 64.9 °F - 19.0 °F 17% 30.17 in 10.0 mi ESE 9.2 mph - N/A   Clear
12:52 PM 66.0 °F - 18.0 °F 16% 30.13 in 10.0 mi SE 8.1 mph - N/A   Clear
1:52 PM 66.9 °F - 18.0 °F 15% 30.11 in 10.0 mi ESE 8.1 mph - N/A   Clear
2:52 PM 66.9 °F - 18.0 °F 15% 30.09 in 10.0 mi ESE 6.9 mph - N/A   Clear
3:52 PM 66.0 °F - 18.0 °F 16% 30.08 in 10.0 mi ESE 8.1 mph - N/A   Clear
4:52 PM 60.1 °F - 18.0 °F 20% 30.09 in 10.0 mi ESE 9.2 mph - N/A   Clear
5:52 PM 55.9 °F - 18.0 °F 23% 30.09 in 10.0 mi East 5.8 mph - N/A   Clear
6:52 PM 54.0 °F - 16.0 °F 22% 30.09 in 10.0 mi East 11.5 mph - N/A   Clear
7:52 PM 52.0 °F - 16.0 °F 24% 30.08 in 10.0 mi ENE 4.6 mph - N/A   Clear
8:52 PM 48.9 °F - 17.1 °F 28% 30.07 in 10.0 mi North 3.5 mph - N/A   Clear
9:52 PM 48.9 °F - 16.0 °F 27% 30.08 in 10.0 mi SW 3.5 mph - N/A   Clear
10:52 PM 48.0 °F - 16.0 °F 28% 30.07 in 10.0 mi Calm Calm - N/A   Clear
11:52 PM 45.0 °F 43.5 °F 16.0 °F 31% 30.06 in 10.0 mi SE 3.5 mph - N/A   Clear